Location: De Greiden
(52.9496°N, 5.9137°E)
Time: 21:55:41
(UTC+00:00)

Helios 1A Rocket - Pass Details

Date: 24 January 2021
Orbit: 562 x 586 km, 98.3° (Epoch: 01 March)

Event Time Altitude Azimuth Distance (km) Brightness Sun altitude
Rises 18:48:59 0° 182° (S) 2,804 6.5 -24.1°
Reaches altitude 10° 18:51:14 10° 189° (S) 1,909 5.6 -24.4°
Maximum altitude 18:55:10 42° 261° (W) 850 4.2 -25.0°
Drops below altitude 10° 18:59:08 10° 333° (NNW) 1,923 5.9 -25.6°
Sets 19:01:24 0° 340° (NNW) 2,827 6.7 -26.0°
